Time,TemperatureF,DewpointF,PressureIn,WindDirection,WindDirectionDegrees,WindSpeedMPH,WindSpeedGustMPH,Humidity,HourlyPrecipIn,Conditions,Clouds,dailyrainin,SoftwareType,DateUTC
2013-04-28 00:29:00,56.6,44.6,29.90,SE,132,3.0,3.0,64,0.00,,,0.00,Wunderground v.1.15,2013-04-28 05:29:00,
2013-04-28 00:59:00,55.9,44.3,29.90,SE,132,1.0,3.0,65,0.00,,,0.00,Wunderground v.1.15,2013-04-28 05:59:00,
2013-04-28 01:29:00,55.3,44.1,29.89,SE,132,0.0,0.0,66,0.00,,,0.00,Wunderground v.1.15,2013-04-28 06:29:00,
2013-04-28 01:59:00,53.9,44.0,29.89,SE,132,0.0,0.0,69,0.00,,,0.00,Wunderground v.1.15,2013-04-28 06:59:00,
2013-04-28 02:29:00,52.8,43.7,29.88,SE,136,2.0,4.0,71,0.00,,,0.00,Wunderground v.1.15,2013-04-28 07:29:00,
2013-04-28 02:59:00,52.3,43.5,29.88,SE,144,3.0,4.0,72,0.00,,,0.00,Wunderground v.1.15,2013-04-28 07:59:00,
2013-04-28 03:29:00,51.7,43.3,29.87,SE,140,4.0,4.0,73,0.00,,,0.00,Wunderground v.1.15,2013-04-28 08:29:00,
2013-04-28 03:59:00,50.2,42.9,29.87,SE,139,4.0,5.0,76,0.00,,,0.00,Wunderground v.1.15,2013-04-28 08:59:00,
2013-04-28 04:29:00,49.1,42.5,29.86,SE,136,3.0,3.0,78,0.00,,,0.00,Wunderground v.1.15,2013-04-28 09:29:00,
2013-04-28 04:59:00,49.8,42.9,29.86,SE,144,2.0,2.0,77,0.00,,,0.00,Wunderground v.1.15,2013-04-28 09:59:00,
2013-04-28 05:29:00,49.1,42.5,29.87,SE,144,0.0,1.0,78,0.00,,,0.00,Wunderground v.1.15,2013-04-28 10:29:00,
2013-04-28 05:59:00,48.3,42.1,29.86,SE,141,5.0,5.0,79,0.00,,,0.00,Wunderground v.1.15,2013-04-28 10:59:00,
2013-04-28 06:29:00,47.4,42.2,29.87,SE,141,3.0,3.0,82,0.00,,,0.00,Wunderground v.1.15,2013-04-28 11:29:00,
2013-04-28 06:59:00,48.2,42.3,29.87,ESE,118,1.0,1.0,80,0.00,,,0.00,Wunderground v.1.15,2013-04-28 11:59:00,
2013-04-28 07:29:00,49.2,42.6,29.87,SE,127,3.0,3.0,78,0.00,,,0.00,Wunderground v.1.15,2013-04-28 12:29:00,
2013-04-28 07:59:00,51.6,43.2,29.86,SE,146,4.0,4.0,73,0.00,,,0.00,Wunderground v.1.15,2013-04-28 12:59:00,
2013-04-28 08:29:00,54.4,43.7,29.85,SE,140,4.0,4.0,67,0.00,,,0.00,Wunderground v.1.15,2013-04-28 13:29:00,
2013-04-28 08:59:00,56.9,43.6,29.83,SSE,163,3.0,3.0,61,0.00,,,0.00,Wunderground v.1.15,2013-04-28 13:59:00,
2013-04-28 09:29:00,60.1,42.9,29.82,South,190,8.0,8.0,53,0.00,,,0.00,Wunderground v.1.15,2013-04-28 14:29:00,
2013-04-28 09:59:00,62.3,42.9,29.81,SSW,207,5.0,5.0,49,0.00,,,0.00,Wunderground v.1.15,2013-04-28 14:59:00,
2013-04-28 10:29:00,63.1,43.1,29.81,SSE,148,5.0,5.0,48,0.00,,,0.00,Wunderground v.1.15,2013-04-28 15:29:00,
2013-04-28 10:59:00,64.2,43.0,29.80,SE,138,6.0,6.0,46,0.00,,,0.00,Wunderground v.1.15,2013-04-28 15:59:00,
2013-04-28 11:29:00,66.3,43.1,29.80,SSE,148,5.0,11.0,43,0.00,,,0.00,Wunderground v.1.15,2013-04-28 16:29:00,
2013-04-28 12:00:00,66.9,43.0,29.79,SSE,149,6.0,7.0,42,0.00,,,0.00,Wunderground v.1.15,2013-04-28 17:00:00,
2013-04-28 12:29:00,67.8,41.9,29.77,SSE,159,8.0,8.0,39,0.00,,,0.00,Wunderground v.1.15,2013-04-28 17:29:00,
2013-04-28 12:59:00,68.1,42.2,29.76,SE,126,8.0,8.0,39,0.00,,,0.00,Wunderground v.1.15,2013-04-28 17:59:00,
2013-04-28 13:29:00,68.8,40.7,29.75,ESE,107,10.0,11.0,36,0.00,,,0.00,Wunderground v.1.15,2013-04-28 18:29:00,
2013-04-28 13:59:00,70.6,40.1,29.74,SSE,167,10.0,10.0,33,0.00,,,0.00,Wunderground v.1.15,2013-04-28 18:59:00,
2013-04-28 14:29:00,70.6,40.1,29.73,SSE,163,6.0,9.0,33,0.00,,,0.00,Wunderground v.1.15,2013-04-28 19:29:00,
2013-04-28 14:59:00,71.6,41.0,29.72,SSE,149,6.0,13.0,33,0.00,,,0.00,Wunderground v.1.15,2013-04-28 19:59:00,
2013-04-28 15:29:00,72.7,41.1,29.71,WSW,244,5.0,6.0,32,0.00,,,0.00,Wunderground v.1.15,2013-04-28 20:29:00,
2013-04-28 15:59:00,73.0,40.6,29.70,SW,217,8.0,8.0,31,0.00,,,0.00,Wunderground v.1.15,2013-04-28 20:59:00,
2013-04-28 16:29:00,73.5,42.6,29.68,South,178,8.0,8.0,33,0.00,,,0.00,Wunderground v.1.15,2013-04-28 21:29:00,
2013-04-28 16:59:00,73.2,41.6,29.68,SW,225,11.0,11.0,32,0.00,,,0.00,Wunderground v.1.15,2013-04-28 21:59:00,
2013-04-28 17:29:00,73.0,42.2,29.69,SW,228,12.0,12.0,33,0.00,,,0.00,Wunderground v.1.15,2013-04-28 22:29:00,
2013-04-28 17:59:00,72.8,42.8,29.68,SSW,206,7.0,7.0,34,0.00,,,0.00,Wunderground v.1.15,2013-04-28 22:59:00,
2013-04-28 18:29:00,73.0,43.7,29.67,SE,140,6.0,9.0,35,0.00,,,0.00,Wunderground v.1.15,2013-04-28 23:29:00,
2013-04-28 18:59:00,72.5,44.0,29.65,South,183,4.0,11.0,36,0.00,,,0.00,Wunderground v.1.15,2013-04-28 23:59:00,
2013-04-28 19:29:00,71.3,44.4,29.66,SSE,148,3.0,3.0,38,0.00,,,0.00,Wunderground v.1.15,2013-04-29 00:29:00,
2013-04-28 19:59:00,70.1,44.6,29.66,SSE,159,1.0,2.0,40,0.00,,,0.00,Wunderground v.1.15,2013-04-29 00:59:00,
2013-04-28 20:29:00,69.1,45.0,29.67,SSE,152,2.0,2.0,42,0.00,,,0.00,Wunderground v.1.15,2013-04-29 01:29:00,
2013-04-28 20:59:00,67.9,45.8,29.67,SSE,151,4.0,4.0,45,0.00,,,0.00,Wunderground v.1.15,2013-04-29 01:59:00,
2013-04-28 21:29:00,66.8,45.9,29.67,SE,145,4.0,4.0,47,0.00,,,0.00,Wunderground v.1.15,2013-04-29 02:29:00,
2013-04-28 21:59:00,66.3,46.0,29.67,SE,146,4.0,4.0,48,0.00,,,0.00,Wunderground v.1.15,2013-04-29 02:59:00,
2013-04-28 22:29:00,65.6,45.4,29.68,SE,126,3.0,3.0,48,0.00,,,0.00,Wunderground v.1.15,2013-04-29 03:29:00,
2013-04-28 22:59:00,65.5,46.4,29.69,West,267,2.0,2.0,50,0.00,,,0.00,Wunderground v.1.15,2013-04-29 03:59:00,
2013-04-28 23:29:00,61.8,51.9,29.71,WSW,244,3.0,3.0,70,0.00,,,0.00,Wunderground v.1.15,2013-04-29 04:29:00,